User: anonymous   Login
Location: Unspecified
(0.0000°N, 0.0000°E)
Time: 18:39:06
(UTC+02:00)
Language:

Cosmos 1953 Rocket - Orbit

View from above orbital plane
View from above orbital plane
View from above satellite
View from above satellite

Ground track
Ground track

The orbit data is extracted from the following two-line orbital elements,

1 19211U 88050B   16178.13728913  .00000085  00000-0  75124-5 0  9999
2 19211  82.5253 175.4023 0021124 206.9997 198.8541 14.82903460514020
Epoch (UTC): 26 June 2016 03:17:41
Eccentricity: 0.0021124
inclination: 82.5253°
perigee height: 605 km
apogee height: 635 km
right ascension of ascending node: 175.4023°
argument of perigee: 206.9997°
revolutions per day: 14.82903460
mean anomaly at epoch: 198.8541°
orbit number at epoch: 51402

The dashed part of the orbit path shows where the satellite is in the earth's shadow,  

DLR